Time,TemperatureF,DewpointF,PressureIn,WindDirection,WindDirectionDegrees,WindSpeedMPH,WindSpeedGustMPH,Humidity,HourlyPrecipIn,Conditions,Clouds,dailyrainin,SoftwareType,DateUTC
2013-02-08 00:00:00,36.9,35.3,29.98,NNE,14,1.0,14.0,94,0.01,,---,0.32,VWS V14.01,2013-02-08 05:00:00,
2013-02-08 00:01:00,36.9,35.3,29.98,NNE,26,9.0,14.0,94,0.01,,---,0.32,VWS V14.01,2013-02-08 05:01:00,
2013-02-08 00:03:00,36.9,35.3,29.99,NE,52,1.0,3.0,94,0.01,,---,0.00,VWS V14.01,2013-02-08 05:03:00,
2013-02-08 00:09:00,36.9,35.3,29.99,North,9,2.0,11.0,94,0.01,,---,0.00,VWS V14.01,2013-02-08 05:09:00,
2013-02-08 00:13:00,36.9,35.3,29.99,NW,317,3.0,11.0,94,0.01,,---,0.00,VWS V14.01,2013-02-08 05:13:00,
2013-02-08 00:19:00,36.9,35.3,29.99,NW,317,4.0,12.0,94,0.01,,---,0.00,VWS V14.01,2013-02-08 05:19:00,
2013-02-08 00:25:00,36.9,35.3,29.99,North,355,2.0,12.0,94,0.01,,---,0.00,VWS V14.01,2013-02-08 05:25:00,
2013-02-08 00:30:00,36.9,35.6,29.98,NNW,329,4.0,12.0,95,0.01,,---,0.00,VWS V14.01,2013-02-08 05:30:00,
2013-02-08 00:31:00,36.9,35.6,29.98,NNE,25,0.0,12.0,95,0.01,,---,0.00,VWS V14.01,2013-02-08 05:31:00,
2013-02-08 00:37:00,36.9,35.6,29.98,NNW,338,4.0,6.0,95,0.00,,---,0.00,VWS V14.01,2013-02-08 05:37:00,
2013-02-08 00:43:00,36.9,35.6,29.97,NNE,13,0.0,12.0,95,0.00,,---,0.00,VWS V14.01,2013-02-08 05:43:00,
2013-02-08 00:49:00,36.8,35.5,29.98,NW,306,0.0,12.0,95,0.00,,---,0.00,VWS V14.01,2013-02-08 05:49:00,
2013-02-08 00:55:00,36.8,35.5,29.98,NW,326,0.0,12.0,95,0.00,,---,0.00,VWS V14.01,2013-02-08 05:55:00,
2013-02-08 01:00:00,36.8,35.5,29.97,North,360,0.0,12.0,95,0.00,,---,0.00,VWS V14.01,2013-02-08 06:00:00,
2013-02-08 01:01:00,36.8,35.5,29.97,North,360,0.0,12.0,95,0.00,,---,0.00,VWS V14.01,2013-02-08 06:01:00,
2013-02-08 01:07:00,36.8,35.5,29.98,NW,324,4.0,6.0,95,0.00,,---,0.00,VWS V14.01,2013-02-08 06:07:00,
2013-02-08 01:13:00,36.8,35.5,29.98,NW,323,3.0,6.0,95,0.00,,---,0.00,VWS V14.01,2013-02-08 06:13:00,
2013-02-08 01:19:00,36.7,35.4,29.98,NNW,329,2.0,6.0,95,0.00,,---,0.00,VWS V14.01,2013-02-08 06:19:00,
2013-02-08 01:25:00,36.8,35.5,29.98,NNW,330,0.0,6.0,95,0.00,,---,0.00,VWS V14.01,2013-02-08 06:25:00,
2013-02-08 01:30:00,36.7,36.7,29.98,NNW,327,1.0,6.0,100,0.00,,---,0.00,VWS V14.01,2013-02-08 06:30:00,
2013-02-08 01:31:00,36.7,36.7,29.98,NNW,327,1.0,6.0,100,0.00,,---,0.00,VWS V14.01,2013-02-08 06:31:00,
2013-02-08 01:37:00,36.7,36.7,29.98,NNW,330,0.0,3.0,100,0.00,,---,0.00,VWS V14.01,2013-02-08 06:37:00,
2013-02-08 01:43:00,36.7,36.7,29.98,NNW,331,0.0,3.0,100,0.00,,---,0.00,VWS V14.01,2013-02-08 06:43:00,
2013-02-08 01:49:00,36.7,35.4,29.97,NNW,331,0.0,3.0,95,0.00,,---,0.00,VWS V14.01,2013-02-08 06:49:00,
2013-02-08 01:55:00,36.7,35.4,29.98,NNW,338,0.0,3.0,95,0.00,,---,0.00,VWS V14.01,2013-02-08 06:55:00,
2013-02-08 02:00:00,36.6,35.3,29.97,NNW,338,0.0,3.0,95,0.00,,---,0.00,VWS V14.01,2013-02-08 07:00:00,
2013-02-08 02:01:00,36.6,35.3,29.97,NNW,338,0.0,3.0,95,0.00,,---,0.00,VWS V14.01,2013-02-08 07:01:00,
2013-02-08 02:07:00,36.6,35.3,29.97,NNE,21,2.0,4.0,95,0.00,,---,0.00,VWS V14.01,2013-02-08 07:07:00,
2013-02-08 02:13:00,36.5,35.2,29.98,NNE,21,0.0,4.0,95,0.00,,---,0.00,VWS V14.01,2013-02-08 07:13:00,
2013-02-08 02:19:00,36.5,35.2,29.98,NNE,19,2.0,4.0,95,0.00,,---,0.00,VWS V14.01,2013-02-08 07:19:00,
2013-02-08 02:25:00,36.5,35.2,29.99,NNE,19,0.0,4.0,95,0.00,,---,0.00,VWS V14.01,2013-02-08 07:25:00,
2013-02-08 02:30:00,36.5,35.2,29.98,NNE,19,0.0,4.0,95,0.00,,---,0.00,VWS V14.01,2013-02-08 07:30:00,
2013-02-08 02:31:00,36.5,35.2,29.98,NNE,19,0.0,4.0,95,0.00,,---,0.00,VWS V14.01,2013-02-08 07:31:00,
2013-02-08 02:37:00,36.5,35.2,29.98,NNE,19,0.0,0.0,95,0.00,,---,0.00,VWS V14.01,2013-02-08 07:37:00,
2013-02-08 02:43:00,36.5,35.2,29.98,NNE,19,0.0,0.0,95,0.00,,---,0.00,VWS V14.01,2013-02-08 07:43:00,
2013-02-08 02:50:00,36.5,35.2,29.97,NNE,19,0.0,2.0,95,0.00,,---,0.00,VWS V14.01,2013-02-08 07:50:00,
2013-02-08 02:56:00,36.4,35.1,29.98,NNE,19,1.0,4.0,95,0.00,,---,0.00,VWS V14.01,2013-02-08 07:56:00,
2013-02-08 03:00:00,36.4,35.1,29.97,NNE,19,0.0,4.0,95,0.00,,---,0.00,VWS V14.01,2013-02-08 08:00:00,
2013-02-08 03:02:00,36.4,35.1,29.97,NNE,19,0.0,4.0,95,0.00,,---,0.00,VWS V14.01,2013-02-08 08:02:00,
2013-02-08 03:08:00,36.4,35.1,29.98,NNE,19,0.0,3.0,95,0.00,,---,0.00,VWS V14.01,2013-02-08 08:08:00,
2013-02-08 03:14:00,36.4,35.1,29.97,NNE,18,0.0,3.0,95,0.00,,---,0.00,VWS V14.01,2013-02-08 08:14:00,
2013-02-08 03:20:00,36.3,35.0,29.97,NNE,18,0.0,3.0,95,0.00,,---,0.00,VWS V14.01,2013-02-08 08:20:00,
2013-02-08 03:26:00,36.3,35.0,29.97,NNE,18,0.0,3.0,95,0.00,,---,0.00,VWS V14.01,2013-02-08 08:26:00,
2013-02-08 03:30:00,36.3,35.0,29.97,NNE,18,0.0,3.0,95,0.00,,---,0.00,VWS V14.01,2013-02-08 08:30:00,
2013-02-08 03:31:00,36.3,35.0,29.97,NNE,18,0.0,3.0,95,0.00,,---,0.00,VWS V14.01,2013-02-08 08:31:00,
2013-02-08 03:38:00,36.2,34.9,29.97,NNE,15,1.0,3.0,95,0.00,,---,0.00,VWS V14.01,2013-02-08 08:38:00,
2013-02-08 03:44:00,36.2,34.9,29.97,North,360,2.0,5.0,95,0.00,,---,0.00,VWS V14.01,2013-02-08 08:44:00,
2013-02-08 03:50:00,36.2,34.9,29.97,North,360,2.0,5.0,95,0.00,,---,0.00,VWS V14.01,2013-02-08 08:50:00,
2013-02-08 03:56:00,36.1,34.8,29.97,North,360,1.0,5.0,95,0.00,,---,0.00,VWS V14.01,2013-02-08 08:56:00,
2013-02-08 04:00:00,35.8,34.5,29.97,North,360,0.0,5.0,95,0.00,,---,0.00,VWS V14.01,2013-02-08 09:00:00,
2013-02-08 04:02:00,35.8,34.5,29.97,North,360,0.0,5.0,95,0.00,,---,0.00,VWS V14.01,2013-02-08 09:02:00,
2013-02-08 04:08:00,35.7,34.4,29.96,North,360,0.0,0.0,95,0.00,,---,0.00,VWS V14.01,2013-02-08 09:08:00,
2013-02-08 04:14:00,35.8,34.5,29.96,North,360,0.0,0.0,95,0.00,,---,0.00,VWS V14.01,2013-02-08 09:14:00,
2013-02-08 04:20:00,35.9,34.6,29.96,North,360,0.0,0.0,95,0.00,,---,0.00,VWS V14.01,2013-02-08 09:20:00,
2013-02-08 04:26:00,35.7,34.4,29.96,North,360,0.0,0.0,95,0.00,,---,0.00,VWS V14.01,2013-02-08 09:26:00,
2013-02-08 04:30:00,35.9,34.6,29.97,North,360,0.0,4.0,95,0.00,,---,0.00,VWS V14.01,2013-02-08 09:30:00,
2013-02-08 04:32:00,35.9,34.6,29.97,North,360,0.0,4.0,95,0.00,,---,0.00,VWS V14.01,2013-02-08 09:32:00,
2013-02-08 04:38:00,35.9,34.6,29.97,North,360,0.0,0.0,95,0.00,,---,0.00,VWS V14.01,2013-02-08 09:38:00,
2013-02-08 04:44:00,35.9,34.6,29.97,North,360,0.0,0.0,95,0.00,,---,0.00,VWS V14.01,2013-02-08 09:44:00,
2013-02-08 04:50:00,36.0,34.7,29.97,North,360,0.0,0.0,95,0.00,,---,0.00,VWS V14.01,2013-02-08 09:50:00,
2013-02-08 04:56:00,36.1,34.8,29.96,North,360,0.0,0.0,95,0.00,,---,0.00,VWS V14.01,2013-02-08 09:56:00,
2013-02-08 05:00:00,36.0,34.7,29.96,North,360,0.0,0.0,95,0.00,,---,0.00,VWS V14.01,2013-02-08 10:00:00,
2013-02-08 05:02:00,36.0,34.7,29.96,North,360,0.0,0.0,95,0.00,,---,0.00,VWS V14.01,2013-02-08 10:02:00,
2013-02-08 05:08:00,35.9,34.6,29.97,North,360,0.0,0.0,95,0.00,,---,0.00,VWS V14.01,2013-02-08 10:08:00,
2013-02-08 05:14:00,36.0,34.7,29.97,North,360,0.0,0.0,95,0.00,,---,0.00,VWS V14.01,2013-02-08 10:14:00,
2013-02-08 05:20:00,36.0,34.7,29.97,North,360,0.0,0.0,95,0.00,,---,0.00,VWS V14.01,2013-02-08 10:20:00,
2013-02-08 05:26:00,36.0,34.7,29.97,North,360,0.0,0.0,95,0.00,,---,0.00,VWS V14.01,2013-02-08 10:26:00,
2013-02-08 05:30:00,36.0,34.7,29.96,North,360,0.0,0.0,95,0.00,,---,0.00,VWS V14.01,2013-02-08 10:30:00,
2013-02-08 05:32:00,36.0,34.7,29.96,North,360,0.0,0.0,95,0.00,,---,0.00,VWS V14.01,2013-02-08 10:32:00,
2013-02-08 05:38:00,36.1,34.8,29.96,North,360,1.0,2.0,95,0.00,,---,0.00,VWS V14.01,2013-02-08 10:38:00,
2013-02-08 05:44:00,37.0,35.7,29.95,North,360,0.0,2.0,95,0.00,,---,0.00,VWS V14.01,2013-02-08 10:44:00,
2013-02-08 05:50:00,37.4,36.1,29.95,North,360,0.0,2.0,95,0.00,,---,0.00,VWS V14.01,2013-02-08 10:50:00,
2013-02-08 05:56:00,37.7,36.4,29.95,North,360,0.0,2.0,95,0.00,,---,0.00,VWS V14.01,2013-02-08 10:56:00,
2013-02-08 06:00:00,37.4,36.1,29.95,North,360,0.0,2.0,95,0.00,,---,0.00,VWS V14.01,2013-02-08 11:00:00,
2013-02-08 06:02:00,37.4,36.1,29.95,North,360,0.0,2.0,95,0.00,,---,0.00,VWS V14.01,2013-02-08 11:02:00,
2013-02-08 06:08:00,37.7,36.4,29.95,North,360,0.0,4.0,95,0.00,,---,0.00,VWS V14.01,2013-02-08 11:08:00,
2013-02-08 06:14:00,37.8,36.8,29.95,North,360,0.0,4.0,96,0.00,,---,0.00,VWS V14.01,2013-02-08 11:14:00,
2013-02-08 06:20:00,38.0,37.0,29.95,North,360,1.0,4.0,96,0.00,,---,0.00,VWS V14.01,2013-02-08 11:20:00,
2013-02-08 06:26:00,38.2,37.2,29.95,North,360,0.0,4.0,96,0.00,,---,0.00,VWS V14.01,2013-02-08 11:26:00,
2013-02-08 06:30:00,38.2,37.2,29.95,North,360,0.0,4.0,96,0.00,,---,0.00,VWS V14.01,2013-02-08 11:30:00,
2013-02-08 06:31:00,38.2,37.2,29.95,North,360,0.0,4.0,96,0.00,,---,0.00,VWS V14.01,2013-02-08 11:31:00,
2013-02-08 06:38:00,38.1,37.1,29.95,North,360,0.0,0.0,96,0.00,,---,0.00,VWS V14.01,2013-02-08 11:38:00,
2013-02-08 06:44:00,38.1,37.1,29.96,North,360,0.0,1.0,96,0.00,,---,0.00,VWS V14.01,2013-02-08 11:44:00,
2013-02-08 06:50:00,38.2,37.2,29.96,North,355,1.0,4.0,96,0.00,,---,0.00,VWS V14.01,2013-02-08 11:50:00,
2013-02-08 06:56:00,38.7,37.7,29.96,North,355,0.0,4.0,96,0.00,,---,0.00,VWS V14.01,2013-02-08 11:56:00,
2013-02-08 07:00:00,38.6,37.6,29.96,North,355,0.0,4.0,96,0.00,,---,0.00,VWS V14.01,2013-02-08 12:00:00,
2013-02-08 07:01:00,38.6,37.6,29.96,North,355,0.0,4.0,96,0.00,,---,0.00,VWS V14.01,2013-02-08 12:01:00,
2013-02-08 07:08:00,38.7,37.7,29.96,North,355,0.0,0.0,96,0.00,,---,0.00,VWS V14.01,2013-02-08 12:08:00,
2013-02-08 07:14:00,38.7,37.7,29.96,North,355,0.0,0.0,96,0.00,,---,0.00,VWS V14.01,2013-02-08 12:14:00,
2013-02-08 07:20:00,38.8,37.8,29.96,North,355,0.0,0.0,96,0.00,,---,0.00,VWS V14.01,2013-02-08 12:20:00,
2013-02-08 07:26:00,38.8,37.8,29.96,North,355,0.0,0.0,96,0.00,,---,0.00,VWS V14.01,2013-02-08 12:26:00,
2013-02-08 07:30:00,38.7,37.7,29.96,North,355,0.0,0.0,96,0.00,,---,0.00,VWS V14.01,2013-02-08 12:30:00,
2013-02-08 07:32:00,38.7,37.7,29.96,North,355,0.0,0.0,96,0.00,,---,0.00,VWS V14.01,2013-02-08 12:32:00,
2013-02-08 07:38:00,38.7,37.7,29.97,North,355,0.0,0.0,96,0.00,,---,0.00,VWS V14.01,2013-02-08 12:38:00,
2013-02-08 07:44:00,39.0,38.0,29.97,North,355,0.0,3.0,96,0.00,,---,0.00,VWS V14.01,2013-02-08 12:44:00,
2013-02-08 07:51:00,39.3,38.3,29.97,North,355,0.0,4.0,96,0.00,,---,0.00,VWS V14.01,2013-02-08 12:51:00,
2013-02-08 07:57:00,39.7,38.7,29.98,NNW,344,4.0,7.0,96,0.00,,---,0.00,VWS V14.01,2013-02-08 12:57:00,
2013-02-08 08:00:00,39.9,38.8,29.98,NNW,340,0.0,7.0,96,0.00,,---,0.00,VWS V14.01,2013-02-08 13:00:00,
2013-02-08 08:02:00,39.9,38.8,29.98,NNW,340,0.0,7.0,96,0.00,,---,0.00,VWS V14.01,2013-02-08 13:02:00,
2013-02-08 08:07:00,40.0,39.0,29.97,NNW,340,1.0,5.0,96,0.00,,---,0.00,VWS V14.01,2013-02-08 13:07:00,
2013-02-08 08:13:00,40.3,39.2,29.98,NNW,339,0.0,6.0,96,0.00,,---,0.00,VWS V14.01,2013-02-08 13:13:00,
2013-02-08 08:19:00,40.5,39.5,29.97,NNW,338,2.0,6.0,96,0.00,,---,0.00,VWS V14.01,2013-02-08 13:19:00,
2013-02-08 08:25:00,40.6,39.5,29.97,NNW,340,0.0,6.0,96,0.00,,---,0.00,VWS V14.01,2013-02-08 13:25:00,
2013-02-08 08:30:00,40.8,39.8,29.97,NNW,340,0.0,6.0,96,0.00,,---,0.00,VWS V14.01,2013-02-08 13:30:00,
2013-02-08 08:31:00,40.8,39.8,29.97,NNW,340,0.0,6.0,96,0.00,,---,0.00,VWS V14.01,2013-02-08 13:31:00,
2013-02-08 08:37:00,40.8,39.8,29.97,NNW,340,0.0,0.0,96,0.00,,---,0.00,VWS V14.01,2013-02-08 13:37:00,
2013-02-08 08:43:00,40.9,39.8,29.97,NNW,340,0.0,0.0,96,0.00,,---,0.00,VWS V14.01,2013-02-08 13:43:00,
2013-02-08 08:49:00,41.0,39.7,29.97,NNW,340,2.0,3.0,95,0.00,,---,0.00,VWS V14.01,2013-02-08 13:49:00,
2013-02-08 08:55:00,41.1,39.8,29.98,NNW,340,0.0,3.0,95,0.00,,---,0.00,VWS V14.01,2013-02-08 13:55:00,
2013-02-08 09:00:00,41.1,39.8,29.98,NNW,335,0.0,5.0,95,0.00,,---,0.00,VWS V14.01,2013-02-08 14:00:00,
2013-02-08 09:01:00,41.1,39.8,29.98,NNW,334,0.0,5.0,95,0.00,,---,0.00,VWS V14.01,2013-02-08 14:01:00,
2013-02-08 09:07:00,41.1,39.8,29.98,NNW,329,0.0,4.0,95,0.00,,---,0.00,VWS V14.01,2013-02-08 14:07:00,
2013-02-08 09:13:00,41.3,40.0,29.98,WNW,287,0.0,4.0,95,0.00,,---,0.00,VWS V14.01,2013-02-08 14:13:00,
2013-02-08 09:19:00,41.4,40.1,29.98,WNW,287,0.0,4.0,95,0.00,,---,0.00,VWS V14.01,2013-02-08 14:19:00,
2013-02-08 09:25:00,41.4,40.1,29.97,NW,316,2.0,7.0,95,0.00,,---,0.00,VWS V14.01,2013-02-08 14:25:00,
2013-02-08 09:30:00,41.5,40.2,29.96,NNW,330,0.0,7.0,95,0.00,,---,0.00,VWS V14.01,2013-02-08 14:30:00,
2013-02-08 09:31:00,41.4,40.1,29.96,NNW,330,0.0,7.0,95,0.00,,---,0.00,VWS V14.01,2013-02-08 14:31:00,
2013-02-08 09:37:00,41.5,40.2,29.97,NNW,331,0.0,6.0,95,0.00,,---,0.00,VWS V14.01,2013-02-08 14:37:00,
2013-02-08 09:43:00,41.5,40.2,29.97,NNW,330,0.0,6.0,95,0.00,,---,0.00,VWS V14.01,2013-02-08 14:43:00,
2013-02-08 09:49:00,41.5,40.2,29.97,NNW,333,0.0,7.0,95,0.00,,---,0.00,VWS V14.01,2013-02-08 14:49:00,
2013-02-08 09:55:00,41.5,40.2,29.97,NNW,333,0.0,7.0,95,0.00,,---,0.00,VWS V14.01,2013-02-08 14:55:00,
2013-02-08 10:00:00,41.5,40.2,29.97,NNW,329,0.0,7.0,95,0.00,,---,0.00,VWS V14.01,2013-02-08 15:00:00,
2013-02-08 10:01:00,41.5,40.2,29.97,NNW,329,0.0,7.0,95,0.00,,---,0.00,VWS V14.01,2013-02-08 15:01:00,
2013-02-08 10:07:00,41.7,40.1,29.98,WNW,297,1.0,10.0,94,0.00,,---,0.00,VWS V14.01,2013-02-08 15:07:00,
2013-02-08 10:13:00,42.0,40.7,29.98,WNW,291,3.0,10.0,95,0.00,,---,0.00,VWS V14.01,2013-02-08 15:13:00,
2013-02-08 10:19:00,42.1,40.5,29.98,WNW,295,5.0,10.0,94,0.00,,---,0.00,VWS V14.01,2013-02-08 15:19:00,
2013-02-08 10:25:00,42.2,40.6,29.98,NW,314,3.0,14.0,94,0.00,,---,0.00,VWS V14.01,2013-02-08 15:25:00,
2013-02-08 10:30:00,42.4,40.8,29.98,NNW,337,0.0,14.0,94,0.00,,---,0.00,VWS V14.01,2013-02-08 15:30:00,
2013-02-08 10:31:00,42.4,40.8,29.98,NNW,337,0.0,14.0,94,0.00,,---,0.00,VWS V14.01,2013-02-08 15:31:00,
2013-02-08 10:37:00,42.5,40.9,29.97,NW,323,7.0,10.0,94,0.00,,---,0.00,VWS V14.01,2013-02-08 15:37:00,
2013-02-08 10:43:00,42.7,40.8,29.97,NW,308,3.0,10.0,93,0.00,,---,0.00,VWS V14.01,2013-02-08 15:43:00,
2013-02-08 10:50:00,42.8,40.9,29.98,WNW,295,3.0,10.0,93,0.00,,---,0.00,VWS V14.01,2013-02-08 15:50:00,
2013-02-08 10:56:00,42.6,40.7,29.98,WSW,240,5.0,10.0,93,0.00,,---,0.00,VWS V14.01,2013-02-08 15:56:00,
2013-02-08 11:00:00,42.5,40.3,29.98,NNW,345,3.0,10.0,92,0.00,,---,0.00,VWS V14.01,2013-02-08 16:00:00,
2013-02-08 11:02:00,42.5,40.3,29.98,NNW,345,3.0,10.0,92,0.00,,---,0.00,VWS V14.01,2013-02-08 16:02:00,
2013-02-08 11:08:00,42.4,40.5,29.99,West,277,1.0,9.0,93,0.00,,---,0.00,VWS V14.01,2013-02-08 16:08:00,
2013-02-08 11:14:00,42.4,40.5,29.99,WSW,254,7.0,9.0,93,0.00,,---,0.00,VWS V14.01,2013-02-08 16:14:00,
2013-02-08 11:20:00,42.3,40.4,29.99,NNW,346,7.0,9.0,93,0.00,,---,0.00,VWS V14.01,2013-02-08 16:20:00,
2013-02-08 11:26:00,42.1,40.0,30.00,NNW,335,2.0,9.0,92,0.00,,---,0.00,VWS V14.01,2013-02-08 16:26:00,
2013-02-08 11:30:00,41.8,39.7,30.00,NW,310,3.0,14.0,92,0.00,,---,0.00,VWS V14.01,2013-02-08 16:30:00,
2013-02-08 11:32:00,41.8,39.7,30.00,NW,310,3.0,14.0,92,0.00,,---,0.00,VWS V14.01,2013-02-08 16:32:00,
2013-02-08 11:38:00,41.7,39.5,29.99,NW,304,7.0,12.0,92,0.00,,---,0.00,VWS V14.01,2013-02-08 16:38:00,
2013-02-08 11:44:00,41.3,39.2,29.99,West,279,15.0,15.0,92,0.00,,---,0.00,VWS V14.01,2013-02-08 16:44:00,
2013-02-08 11:50:00,41.0,40.5,29.99,NNW,327,5.0,15.0,98,0.00,,---,0.00,VWS V14.01,2013-02-08 16:50:00,
2013-02-08 11:56:00,40.9,39.0,30.00,WNW,284,11.0,15.0,93,0.00,,---,0.00,VWS V14.01,2013-02-08 16:56:00,
2013-02-08 12:00:00,40.8,38.9,29.99,NNW,348,2.0,15.0,93,0.00,,---,0.00,VWS V14.01,2013-02-08 17:00:00,
2013-02-08 12:01:00,40.8,38.9,29.99,NNW,348,2.0,15.0,93,0.00,,---,0.00,VWS V14.01,2013-02-08 17:01:00,
2013-02-08 12:08:00,40.7,38.8,29.99,WNW,287,4.0,11.0,93,0.00,,---,0.00,VWS V14.01,2013-02-08 17:08:00,
2013-02-08 12:14:00,40.6,38.7,29.99,NNW,334,6.0,16.0,93,0.00,,---,0.00,VWS V14.01,2013-02-08 17:14:00,
2013-02-08 12:20:00,40.6,38.7,29.99,NW,324,5.0,20.0,93,0.00,,---,0.00,VWS V14.01,2013-02-08 17:20:00,
2013-02-08 12:26:00,40.6,38.5,29.98,WSW,257,4.0,20.0,92,0.00,,---,0.00,VWS V14.01,2013-02-08 17:26:00,
2013-02-08 12:30:00,40.6,38.5,29.98,NNW,336,6.0,20.0,92,0.00,,---,0.00,VWS V14.01,2013-02-08 17:30:00,
2013-02-08 12:31:00,40.6,38.5,29.98,NNW,336,6.0,20.0,92,0.00,,---,0.00,VWS V14.01,2013-02-08 17:31:00,
2013-02-08 12:38:00,40.6,38.2,29.98,SW,236,1.0,14.0,91,0.00,,---,0.00,VWS V14.01,2013-02-08 17:38:00,
2013-02-08 12:44:00,40.5,38.1,29.98,WNW,293,4.0,15.0,91,0.00,,---,0.00,VWS V14.01,2013-02-08 17:44:00,
2013-02-08 12:50:00,40.3,37.9,29.99,WNW,303,7.0,16.0,91,0.00,,---,0.00,VWS V14.01,2013-02-08 17:50:00,
2013-02-08 12:56:00,40.4,37.7,29.98,West,270,10.0,21.0,90,0.00,,---,0.00,VWS V14.01,2013-02-08 17:56:00,
2013-02-08 13:00:00,40.4,37.7,29.98,West,278,4.0,21.0,90,0.00,,---,0.00,VWS V14.01,2013-02-08 18:00:00,
2013-02-08 13:02:00,40.4,37.7,29.98,West,278,4.0,21.0,90,0.00,,---,0.00,VWS V14.01,2013-02-08 18:02:00,
2013-02-08 13:08:00,40.3,37.6,29.98,NNW,339,5.0,15.0,90,0.00,,---,0.00,VWS V14.01,2013-02-08 18:08:00,
2013-02-08 13:15:00,40.2,37.5,29.98,WNW,291,6.0,21.0,90,0.00,,---,0.00,VWS V14.01,2013-02-08 18:15:00,
2013-02-08 13:21:00,40.3,37.6,29.97,WNW,286,11.0,21.0,90,0.00,,---,0.00,VWS V14.01,2013-02-08 18:21:00,
2013-02-08 13:27:00,40.5,37.5,29.97,North,355,9.0,21.0,89,0.00,,---,0.00,VWS V14.01,2013-02-08 18:27:00,
2013-02-08 13:30:00,40.6,37.6,29.97,West,279,5.0,21.0,89,0.00,,---,0.00,VWS V14.01,2013-02-08 18:30:00,
2013-02-08 13:33:00,40.6,37.6,29.96,NW,304,9.0,9.0,89,0.00,,---,0.00,VWS V14.01,2013-02-08 18:33:00,
2013-02-08 13:39:00,40.6,37.6,29.96,WNW,284,9.0,16.0,89,0.00,,---,0.00,VWS V14.01,2013-02-08 18:39:00,
2013-02-08 13:45:00,40.7,37.7,29.96,NNW,335,6.0,16.0,89,0.00,,---,0.00,VWS V14.01,2013-02-08 18:45:00,
2013-02-08 13:51:00,41.1,38.1,29.96,NW,324,11.0,16.0,89,0.00,,---,0.00,VWS V14.01,2013-02-08 18:51:00,
2013-02-08 13:57:00,41.0,37.7,29.95,WSW,257,5.0,16.0,88,0.00,,---,0.00,VWS V14.01,2013-02-08 18:57:00,
2013-02-08 14:00:00,41.0,37.7,29.95,NW,322,12.0,16.0,88,0.00,,---,0.00,VWS V14.01,2013-02-08 19:00:00,
2013-02-08 14:03:00,40.9,37.6,29.97,North,355,6.0,14.0,88,0.00,,---,0.00,VWS V14.01,2013-02-08 19:03:00,
2013-02-08 14:09:00,40.7,37.4,29.96,NNW,346,17.0,18.0,88,0.00,,---,0.00,VWS V14.01,2013-02-08 19:09:00,
2013-02-08 14:15:00,40.6,37.6,29.96,West,280,5.0,18.0,89,0.00,,---,0.00,VWS V14.01,2013-02-08 19:15:00,
2013-02-08 14:21:00,40.5,37.5,29.96,NW,315,1.0,21.0,89,0.00,,---,0.00,VWS V14.01,2013-02-08 19:21:00,
2013-02-08 14:27:00,40.4,37.4,29.96,West,265,9.0,21.0,89,0.00,,---,0.00,VWS V14.01,2013-02-08 19:27:00,
2013-02-08 14:30:00,40.4,37.7,29.96,West,271,7.0,21.0,90,0.00,,---,0.00,VWS V14.01,2013-02-08 19:30:00,
2013-02-08 14:33:00,40.3,37.6,29.96,West,275,12.0,14.0,90,0.00,,---,0.00,VWS V14.01,2013-02-08 19:33:00,
2013-02-08 14:39:00,40.2,37.5,29.96,WNW,284,7.0,20.0,90,0.00,,---,0.00,VWS V14.01,2013-02-08 19:39:00,
2013-02-08 14:45:00,40.1,37.4,29.96,WNW,303,4.0,20.0,90,0.00,,---,0.00,VWS V14.01,2013-02-08 19:45:00,
2013-02-08 14:51:00,40.0,37.3,29.96,WSW,254,10.0,20.0,90,0.00,,---,0.00,VWS V14.01,2013-02-08 19:51:00,
2013-02-08 14:57:00,39.9,37.2,29.97,WNW,290,9.0,20.0,90,0.00,,---,0.00,VWS V14.01,2013-02-08 19:57:00,
2013-02-08 15:00:00,39.8,36.8,29.97,West,272,14.0,20.0,89,0.00,,---,0.00,VWS V14.01,2013-02-08 20:00:00,
2013-02-08 15:03:00,39.8,36.5,29.97,West,279,3.0,17.0,88,0.00,,---,0.00,VWS V14.01,2013-02-08 20:03:00,
2013-02-08 15:09:00,40.3,37.0,29.97,NW,314,10.0,17.0,88,0.00,,---,0.00,VWS V14.01,2013-02-08 20:09:00,
2013-02-08 15:16:00,40.6,36.5,29.97,NW,312,23.0,23.0,85,0.00,,---,0.00,VWS V14.01,2013-02-08 20:16:00,
2013-02-08 15:22:00,41.3,36.2,29.97,SW,236,4.0,23.0,82,0.00,,---,0.00,VWS V14.01,2013-02-08 20:22:00,
2013-02-08 15:28:00,41.1,36.0,29.97,WNW,296,6.0,23.0,82,0.00,,---,0.00,VWS V14.01,2013-02-08 20:28:00,
2013-02-08 15:30:00,40.7,35.6,29.97,NW,306,12.0,23.0,82,0.00,,---,0.00,VWS V14.01,2013-02-08 20:30:00,
2013-02-08 15:34:00,40.4,35.0,29.98,West,281,4.0,16.0,81,0.00,,---,0.00,VWS V14.01,2013-02-08 20:34:00,
2013-02-08 15:40:00,39.9,33.9,29.98,WNW,300,7.0,16.0,79,0.00,,---,0.00,VWS V14.01,2013-02-08 20:40:00,
2013-02-08 15:46:00,40.4,33.8,29.98,West,275,9.0,19.0,77,0.00,,---,0.00,VWS V14.01,2013-02-08 20:46:00,
2013-02-08 15:52:00,40.2,32.6,29.98,North,9,3.0,22.0,74,0.00,,---,0.00,VWS V14.01,2013-02-08 20:52:00,
2013-02-08 15:58:00,40.4,32.4,29.98,West,271,21.0,26.0,73,0.00,,---,0.00,VWS V14.01,2013-02-08 20:58:00,
2013-02-08 16:00:00,40.4,32.1,29.98,NW,309,13.0,26.0,72,0.00,,---,0.00,VWS V14.01,2013-02-08 21:00:00,
2013-02-08 16:04:00,40.4,31.0,29.98,West,273,20.0,25.0,69,0.00,,---,0.00,VWS V14.01,2013-02-08 21:04:00,
2013-02-08 16:10:00,40.4,30.7,29.98,West,271,8.0,25.0,68,0.00,,---,0.00,VWS V14.01,2013-02-08 21:10:00,
2013-02-08 16:16:00,40.4,30.3,29.98,NW,318,5.0,25.0,67,0.00,,---,0.00,VWS V14.01,2013-02-08 21:16:00,
2013-02-08 16:22:00,40.5,30.8,29.98,WSW,240,18.0,25.0,68,0.00,,---,0.00,VWS V14.01,2013-02-08 21:22:00,
2013-02-08 16:28:00,40.6,30.9,29.98,West,281,24.0,25.0,68,0.00,,---,0.00,VWS V14.01,2013-02-08 21:28:00,
2013-02-08 16:30:00,40.7,31.0,29.98,NW,306,8.0,25.0,68,0.00,,---,0.00,VWS V14.01,2013-02-08 21:30:00,
2013-02-08 16:34:00,40.7,31.3,29.98,WNW,296,11.0,14.0,69,0.00,,---,0.00,VWS V14.01,2013-02-08 21:34:00,
2013-02-08 16:40:00,40.6,31.6,29.99,NNW,339,11.0,21.0,70,0.00,,---,0.00,VWS V14.01,2013-02-08 21:40:00,
2013-02-08 16:46:00,40.0,30.7,29.99,West,281,9.0,21.0,69,0.00,,---,0.00,VWS V14.01,2013-02-08 21:46:00,
2013-02-08 16:52:00,39.6,30.3,30.00,West,268,5.0,21.0,69,0.00,,---,0.00,VWS V14.01,2013-02-08 21:52:00,
2013-02-08 16:58:00,39.3,29.6,30.01,WNW,293,6.0,21.0,68,0.00,,---,0.00,VWS V14.01,2013-02-08 21:58:00,
2013-02-08 17:00:00,39.2,29.9,30.01,WNW,298,3.0,21.0,69,0.00,,---,0.00,VWS V14.01,2013-02-08 22:00:00,
2013-02-08 17:04:00,39.1,29.5,30.00,NW,306,7.0,14.0,68,0.00,,---,0.00,VWS V14.01,2013-02-08 22:04:00,
2013-02-08 17:10:00,38.8,28.4,30.01,NW,314,3.0,17.0,66,0.00,,---,0.00,VWS V14.01,2013-02-08 22:10:00,
2013-02-08 17:16:00,38.6,28.6,30.01,NW,325,3.0,17.0,67,0.00,,---,0.00,VWS V14.01,2013-02-08 22:16:00,
2013-02-08 17:22:00,38.3,28.7,30.02,WNW,291,11.0,17.0,68,0.00,,---,0.00,VWS V14.01,2013-02-08 22:22:00,
2013-02-08 17:28:00,38.0,28.0,30.02,West,262,3.0,17.0,67,0.00,,---,0.00,VWS V14.01,2013-02-08 22:28:00,
2013-02-08 17:30:00,37.8,28.2,30.02,WNW,288,14.0,17.0,68,0.00,,---,0.00,VWS V14.01,2013-02-08 22:30:00,
2013-02-08 17:34:00,37.7,28.1,30.02,WNW,299,6.0,14.0,68,0.00,,---,0.00,VWS V14.01,2013-02-08 22:34:00,
2013-02-08 17:40:00,37.4,27.8,30.02,WSW,245,6.0,20.0,68,0.00,,---,0.00,VWS V14.01,2013-02-08 22:40:00,
2013-02-08 17:46:00,37.1,27.5,30.02,SW,235,10.0,26.0,68,0.00,,---,0.00,VWS V14.01,2013-02-08 22:46:00,
2013-02-08 17:52:00,36.8,27.6,30.02,SW,233,3.0,26.0,69,0.00,,---,0.00,VWS V14.01,2013-02-08 22:52:00,
2013-02-08 17:58:00,36.5,27.7,30.03,WNW,299,6.0,26.0,70,0.00,,---,0.00,VWS V14.01,2013-02-08 22:58:00,
2013-02-08 18:00:00,36.4,27.6,30.03,WNW,291,5.0,26.0,70,0.00,,---,0.00,VWS V14.01,2013-02-08 23:00:00,
2013-02-08 18:04:00,36.2,27.4,30.03,NNW,340,13.0,23.0,70,0.00,,---,0.00,VWS V14.01,2013-02-08 23:04:00,
2013-02-08 18:10:00,36.1,26.9,30.03,NNW,329,11.0,23.0,69,0.00,,---,0.00,VWS V14.01,2013-02-08 23:10:00,
2013-02-08 18:16:00,35.9,26.7,30.03,WNW,298,13.0,23.0,69,0.00,,---,0.00,VWS V14.01,2013-02-08 23:16:00,
2013-02-08 18:22:00,35.7,26.5,30.03,SW,215,3.0,23.0,69,0.00,,---,0.00,VWS V14.01,2013-02-08 23:22:00,
2013-02-08 18:28:00,35.3,26.2,30.03,WNW,287,6.0,23.0,69,0.00,,---,0.00,VWS V14.01,2013-02-08 23:28:00,
2013-02-08 18:30:00,35.3,25.8,30.03,WNW,288,4.0,23.0,68,0.00,,---,0.00,VWS V14.01,2013-02-08 23:30:00,
2013-02-08 18:34:00,35.2,25.7,30.03,NW,311,14.0,15.0,68,0.00,,---,0.00,VWS V14.01,2013-02-08 23:34:00,
2013-02-08 18:40:00,35.0,25.5,30.03,WNW,300,2.0,18.0,68,0.00,,---,0.00,VWS V14.01,2013-02-08 23:40:00,
2013-02-08 18:46:00,34.7,25.2,30.03,West,261,2.0,22.0,68,0.00,,---,0.00,VWS V14.01,2013-02-08 23:46:00,
2013-02-08 18:52:00,34.4,24.6,30.05,WSW,240,6.0,22.0,67,0.00,,---,0.00,VWS V14.01,2013-02-08 23:52:00,
2013-02-08 18:58:00,34.4,24.6,30.05,WSW,250,6.0,22.0,67,0.00,,---,0.00,VWS V14.01,2013-02-08 23:58:00,
2013-02-08 19:00:00,34.4,24.6,30.05,West,269,6.0,22.0,67,0.00,,---,0.00,VWS V14.01,2013-02-09 00:00:00,
2013-02-08 19:04:00,34.2,24.4,30.04,WSW,239,5.0,17.0,67,0.00,,---,0.00,VWS V14.01,2013-02-09 00:04:00,
2013-02-08 19:10:00,34.0,24.2,30.04,WSW,241,2.0,19.0,67,0.00,,---,0.00,VWS V14.01,2013-02-09 00:10:00,
2013-02-08 19:17:00,33.7,25.6,30.04,NW,317,4.0,19.0,72,0.00,,---,0.00,VWS V14.01,2013-02-09 00:17:00,
2013-02-08 19:23:00,33.6,24.2,30.04,West,269,9.0,19.0,68,0.00,,---,0.00,VWS V14.01,2013-02-09 00:23:00,
2013-02-08 19:29:00,33.5,23.4,30.05,West,271,15.0,19.0,66,0.00,,---,0.00,VWS V14.01,2013-02-09 00:29:00,
2013-02-08 19:30:00,33.6,23.5,30.05,NNW,336,16.0,20.0,66,0.00,,---,0.00,VWS V14.01,2013-02-09 00:30:00,
2013-02-08 19:35:00,33.6,23.1,30.05,NNW,338,9.0,21.0,65,0.00,,---,0.00,VWS V14.01,2013-02-09 00:35:00,
2013-02-08 19:41:00,33.6,23.1,30.06,WSW,249,4.0,21.0,65,0.00,,---,0.00,VWS V14.01,2013-02-09 00:41:00,
2013-02-08 19:47:00,33.4,23.3,30.07,WNW,295,5.0,21.0,66,0.00,,---,0.00,VWS V14.01,2013-02-09 00:47:00,
2013-02-08 19:53:00,33.3,23.2,30.07,WNW,294,14.0,21.0,66,0.00,,---,0.00,VWS V14.01,2013-02-09 00:53:00,
2013-02-08 19:59:00,33.2,23.1,30.07,West,261,6.0,21.0,66,0.00,,---,0.00,VWS V14.01,2013-02-09 00:59:00,
2013-02-08 20:00:00,33.2,23.5,30.06,West,275,5.0,26.0,67,0.00,,---,0.00,VWS V14.01,2013-02-09 01:00:00,
2013-02-08 20:05:00,33.1,23.4,30.06,WSW,257,10.0,22.0,67,0.00,,---,0.00,VWS V14.01,2013-02-09 01:05:00,
2013-02-08 20:11:00,32.8,23.4,30.06,ENE,78,4.0,22.0,68,0.00,,---,0.00,VWS V14.01,2013-02-09 01:11:00,
2013-02-08 20:17:00,32.7,23.3,30.06,NNW,346,9.0,22.0,68,0.00,,---,0.00,VWS V14.01,2013-02-09 01:17:00,
2013-02-08 20:23:00,32.7,23.3,30.07,NNW,340,5.0,22.0,68,0.00,,---,0.00,VWS V14.01,2013-02-09 01:23:00,
2013-02-08 20:29:00,32.6,22.9,30.07,West,271,5.0,22.0,67,0.00,,---,0.00,VWS V14.01,2013-02-09 01:29:00,
2013-02-08 20:30:00,32.6,23.2,30.07,West,265,4.0,22.0,68,0.00,,---,0.00,VWS V14.01,2013-02-09 01:30:00,
2013-02-08 20:35:00,32.5,23.1,30.07,West,271,3.0,9.0,68,0.00,,---,0.00,VWS V14.01,2013-02-09 01:35:00,
2013-02-08 20:41:00,32.3,23.3,30.08,WNW,292,8.0,13.0,69,0.00,,---,0.00,VWS V14.01,2013-02-09 01:41:00,
2013-02-08 20:47:00,32.2,23.2,30.08,NW,320,3.0,21.0,69,0.00,,---,0.00,VWS V14.01,2013-02-09 01:47:00,
2013-02-08 20:53:00,32.0,23.0,30.08,SW,227,7.0,21.0,69,0.00,,---,0.00,VWS V14.01,2013-02-09 01:53:00,
2013-02-08 20:59:00,32.0,23.0,30.08,NNW,338,2.0,21.0,69,0.00,,---,0.00,VWS V14.01,2013-02-09 01:59:00,
2013-02-08 21:00:00,32.0,23.0,30.08,West,259,7.0,21.0,69,0.00,,---,0.00,VWS V14.01,2013-02-09 02:00:00,
2013-02-08 21:05:00,32.0,23.0,30.07,West,260,4.0,15.0,69,0.00,,---,0.00,VWS V14.01,2013-02-09 02:05:00,
2013-02-08 21:11:00,31.9,22.9,30.08,WNW,302,4.0,19.0,69,0.00,,---,0.00,VWS V14.01,2013-02-09 02:11:00,
2013-02-08 21:17:00,31.9,23.2,30.08,West,268,6.0,22.0,70,0.00,,---,0.00,VWS V14.01,2013-02-09 02:17:00,
2013-02-08 21:23:00,31.7,23.0,30.08,West,268,4.0,22.0,70,0.00,,---,0.00,VWS V14.01,2013-02-09 02:23:00,
2013-02-08 21:29:00,31.5,23.2,30.08,WNW,299,4.0,22.0,71,0.00,,---,0.00,VWS V14.01,2013-02-09 02:29:00,
2013-02-08 21:30:00,31.5,23.2,30.09,WSW,254,6.0,22.0,71,0.00,,---,0.00,VWS V14.01,2013-02-09 02:30:00,
2013-02-08 21:35:00,31.4,23.1,30.09,NW,323,15.0,20.0,71,0.00,,---,0.00,VWS V14.01,2013-02-09 02:35:00,
2013-02-08 21:41:00,31.3,23.0,30.09,West,278,5.0,20.0,71,0.00,,---,0.00,VWS V14.01,2013-02-09 02:41:00,
2013-02-08 21:47:00,31.1,23.1,30.10,NE,34,4.0,20.0,72,0.00,,---,0.00,VWS V14.01,2013-02-09 02:47:00,
2013-02-08 21:53:00,30.9,23.3,30.10,WNW,287,12.0,20.0,73,0.00,,---,0.00,VWS V14.01,2013-02-09 02:53:00,
2013-02-08 21:59:00,30.6,23.3,30.10,WNW,293,11.0,25.0,74,0.00,,---,0.00,VWS V14.01,2013-02-09 02:59:00,
2013-02-08 22:00:00,30.5,23.2,30.09,NNE,28,2.0,25.0,74,0.00,,---,0.00,VWS V14.01,2013-02-09 03:00:00,
2013-02-08 22:05:00,30.5,23.5,30.08,WSW,240,14.0,18.0,75,0.00,,---,0.00,VWS V14.01,2013-02-09 03:05:00,
2013-02-08 22:11:00,30.5,23.5,30.09,NE,41,2.0,20.0,75,0.00,,---,0.00,VWS V14.01,2013-02-09 03:11:00,
2013-02-08 22:17:00,30.5,23.5,30.11,West,275,10.0,20.0,75,0.00,,---,0.00,VWS V14.01,2013-02-09 03:17:00,
2013-02-08 22:23:00,30.6,23.3,30.11,West,273,4.0,20.0,74,0.00,,---,0.00,VWS V14.01,2013-02-09 03:23:00,
2013-02-08 22:29:00,30.5,23.2,30.10,WNW,290,17.0,20.0,74,0.00,,---,0.00,VWS V14.01,2013-02-09 03:29:00,
2013-02-08 22:30:00,30.5,23.2,30.11,SW,233,4.0,20.0,74,0.00,,---,0.00,VWS V14.01,2013-02-09 03:30:00,
2013-02-08 22:36:00,30.5,23.2,30.10,WSW,253,6.0,15.0,74,0.00,,---,0.00,VWS V14.01,2013-02-09 03:36:00,
2013-02-08 22:42:00,30.5,23.2,30.10,West,273,16.0,18.0,74,0.00,,---,0.00,VWS V14.01,2013-02-09 03:42:00,
2013-02-08 22:48:00,30.4,23.1,30.11,WSW,246,3.0,23.0,74,0.00,,---,0.00,VWS V14.01,2013-02-09 03:48:00,
2013-02-08 22:54:00,30.2,23.2,30.11,SW,224,4.0,23.0,75,0.00,,---,0.00,VWS V14.01,2013-02-09 03:54:00,
2013-02-08 23:00:00,30.0,23.0,30.11,WSW,256,17.0,23.0,75,0.00,,---,0.00,VWS V14.01,2013-02-09 04:00:00,
2013-02-08 23:06:00,29.9,23.3,30.12,WNW,298,2.0,22.0,76,0.00,,---,0.00,VWS V14.01,2013-02-09 04:06:00,
2013-02-08 23:12:00,29.8,22.9,30.12,SW,236,6.0,22.0,75,0.00,,---,0.00,VWS V14.01,2013-02-09 04:12:00,
2013-02-08 23:18:00,29.8,22.9,30.13,SW,218,3.0,22.0,75,0.00,,---,0.00,VWS V14.01,2013-02-09 04:18:00,
2013-02-08 23:24:00,29.7,23.1,30.12,WSW,256,4.0,22.0,76,0.00,,---,0.00,VWS V14.01,2013-02-09 04:24:00,
2013-02-08 23:30:00,29.6,23.0,30.13,WNW,282,5.0,23.0,76,0.00,,---,0.00,VWS V14.01,2013-02-09 04:30:00,
2013-02-08 23:36:00,29.5,22.9,30.12,NW,318,0.0,18.0,76,0.00,,---,0.00,VWS V14.01,2013-02-09 04:36:00,
2013-02-08 23:42:00,29.3,23.0,30.12,West,277,3.0,18.0,77,0.00,,---,0.00,VWS V14.01,2013-02-09 04:42:00,
2013-02-08 23:48:00,29.2,22.9,30.12,WNW,291,8.0,18.0,77,0.00,,---,0.00,VWS V14.01,2013-02-09 04:48:00,
2013-02-08 23:54:00,29.1,22.8,30.12,WSW,248,5.0,18.0,77,0.00,,---,0.00,VWS V14.01,2013-02-09 04:54:00,